sat.trackr.live / text

‹ back to catalog

STARLINK-33544

NORAD 62281 · 2024-237Q

PAYLOAD ACTIVE UNKNOWN

§ Identity

Operator
Country
US
Launch date
2024-12-08
Launch site
AFETR
Launch vehicle
Mass (kg)
RCS (m²)

Purposes: comms

External: N2YO · Heavens-Above · Gunter

§ Orbital elements

Epoch: 2026-09-21T11:39:18.804384Z

Period
94.27 min
Inclination
42.9982°
Eccentricity
0.0000573
Mean motion
15.27574078 rev/d
Perigee alt
482.7 km
Apogee alt
483.5 km
Semi-major
6,861.2 km
B*
3.3526e-4
RAAN
190.8425°
Arg perigee
343.8627°
Mean anomaly
16.2206°
Rev number
10,113

§ Raw data

STARLINK-335441 62281U 24237Q   26264.48563431  .00008973  00000+0  33526-3 0  99992 62281  42.9982 190.8425 0000573 343.8627  16.2206 15.27574078101131

JSON: /api/v1/satellites/62281 · /tle

For live sub-satellite position, see the globe view (requires WebGL).

§ Visibility from observer

Set your observer location to see the next 7 days of passes ≥ 10°. The values pass through the URL so the page stays shareable.

No JS? Fill the form by hand. The geolocation button needs JavaScript.